This demonstration page uses our WeatherBlox Daily Observations layout. Learn more.

Left ArrowRight Arrow

40.97296, -117.73568

Hourly Observations for May 8, 2022

Temp ( °F °C ) Dew Point ( °F °C ) Humidity (%) Winds ( mph kmh ) Pressure ( in mb ) Visibility ( mi km ) Precip ( " mm )
12:56 am 00:56 Cloudy 41 5 29 -1.7 62 62 NNW 9 15 29.76 1008 10 16 0.00 0.00
1:56 am 01:56 Cloudy 41 5 31 -0.6 67 67 NNW 5 7 29.73 1007 10 16 0.00 0.00
2:56 am 02:56 Mostly Cloudy 39 3.9 32 0 76 76 NNW 9 15 29.72 1006 10 16 0.00 0.00
3:56 am 03:56 Cloudy 39 3.9 33 0.6 79 79 NNW 12 19 29.70 1006 10 16 0.00 0.00
4:23 am 04:23 Cloudy with Rain 38 3.3 35 1.7 89 89 NW 7 11 29.81 1010 5 8 0.01 0.25
4:49 am 04:49 Mostly Cloudy 37 2.8 34 1.1 89 89 NW 5 7 29.80 1009 10 16 0.03 0.76
4:56 am 04:56 Mostly Cloudy 36 2.2 34 1.1 93 93 N 6 9 29.68 1005 10 16 0.03 0.76
5:15 am 05:15 Mostly Cloudy 36 2.2 34 1.1 93 93 WNW 3 6 29.81 1009 10 16 0.00 0.00
5:56 am 05:56 Cloudy with Light Snow 34 1.1 32 0 92 92 W 8 13 29.70 1006 3 5 0.04 1.02
6:25 am 06:25 Cloudy with Light Snow 33 0.6 32 0 96 96 WNW 5 7 29.83 1010 3 5 0.02 0.51
6:46 am 06:46 Cloudy with Light Snow 34 1.1 32 0 92 92 WNW 3 6 29.83 1010 2 3 0.02 0.51
6:54 am 06:54 Cloudy with Light Snow 34 1 32 0 93 93 WNW 6 9 29.83 1010 1 2 0.03 0.76
6:56 am 06:56 Cloudy with Light Snow 33 0.6 32 0 96 96 W 7 11 29.71 1006 2 2 0.03 0.76
7:08 am 07:08 Cloudy with Light Snow 33 0.6 32 0 96 96 WNW 7 11 29.83 1010 1 2 0.01 0.25
7:17 am 07:17 Cloudy with Light Snow 33 0.6 32 0 96 96 WSW 6 9 29.84 1010 1 1 0.02 0.51
7:23 am 07:23 Cloudy with Light Snow 33 0.6 32 0 96 96 WSW 5 7 29.84 1010 2 2 0.02 0.51
7:26 am 07:26 Cloudy with Light Snow 33 0.6 32 0 96 96 WSW 5 7 29.84 1010 3 5 0.02 0.51
7:47 am 07:47 Cloudy 34 1.1 32 0 92 92 W 6 9 29.82 1010 10 16 0.02 0.51
7:56 am 07:56 Cloudy 35 1.7 33 0.6 93 93 W 7 11 29.70 1006 10 16 0.02 0.51
8:56 am 08:56 Cloudy 37 2.8 34 1.1 89 89 N 8 13 29.72 1006 10 16 0.00 0.00
9:04 am 09:04 Cloudy 37 2.8 33 0.6 86 86 N 5 7 29.79 1009 10 16 0.00 0.00
9:21 am 09:21 Cloudy 38 3.3 33 0.6 83 83 Calm 29.78 1009 10 16 0.00 0.00
9:56 am 09:56 Cloudy 40 4.4 35 1.7 83 83 VRB 3 6 29.70 1006 10 16 0.00 0.00
10:14 am 10:14 Cloudy 41 5 34 1.1 76 76 VRB 6 9 29.74 1007 10 16 0.00 0.00
10:56 am 10:56 Mostly Cloudy 45 7.2 34 1.1 66 66 WNW 9 15 29.69 1005 10 16 0.00 0.00
11:56 am 11:56 Mostly Cloudy 47 8.3 32 0 56 56 W 7 11 29.66 1004 10 16 0.01 0.25
12:56 pm 12:56 Cloudy with Light Rain 46 7.8 30 -1.1 54 54 undefined N/A 29.62 1003 10 16 0.00 0.00
1:56 pm 13:56 Cloudy 51 10.6 22 -5.6 32 32 W 20 31 29.58 1002 10 16 0.00 0.00
2:05 pm 14:05 Cloudy 49 9.4 21 -6.1 33 33 SW 24 39 29.58 1002 10 16 0.00 0.00
2:20 pm 14:20 Cloudy 48 8.9 21 -6.1 34 34 SW 17 28 29.59 1002 10 16 0.00 0.00
2:39 pm 14:39 Mostly Cloudy 48 8.9 20 -6.7 33 33 W 15 24 29.58 1002 10 16 0.00 0.00
2:56 pm 14:56 Mostly Cloudy 48 8.9 19 -7.2 32 32 W 28 44 29.58 1002 10 16 0.00 0.00
3:50 pm 15:50 Cloudy with Light Rain 37 3 30 -1 75 75 W 32 52 29.75 1007 3 4 0.00 0.00
3:51 pm 15:51 Windy with Snow Likely 37 2.8 31 -0.6 79 79 W 32 52 29.69 1005 2 3 0.00 0.00
3:54 pm 15:54 Windy with Snow Likely 35 1.7 30 -1.1 82 82 W 25 41 29.77 1008 1 2 0.00 0.00
4:02 pm 16:02 Cloudy with Snow 34 1.1 30 -1.1 85 85 W 30 48 29.79 1009 1 1 0.00 0.00
4:08 pm 16:08 Windy with Snow Likely 35 1.7 29 -1.7 78 78 W 25 41 29.78 1008 1 2 0.00 0.00
4:11 pm 16:11 Windy with Snow Likely 36 2.2 29 -1.7 76 76 W 25 41 29.77 1008 2 3 0.00 0.00
4:18 pm 16:18 Cloudy 36 2 28 -2 75 75 W 21 33 29.77 1008 9 14 0.00 0.00
4:30 pm 16:30 Cloudy 38 3.3 29 -1.7 70 70 WSW 24 39 29.75 1007 10 16 0.00 0.00
4:56 pm 16:56 Mostly Cloudy 38 3.3 27 -2.8 65 65 WSW 16 26 29.69 1006 10 16 0.00 0.00
5:29 pm 17:29 Mostly Cloudy with Haze 38 3.3 26 -3.3 62 62 W 43 69 29.76 1008 3 4 0.00 0.00
5:31 pm 17:31 Mostly Cloudy with Light Snow 35 1.7 27 -2.8 72 72 W 38 61 29.79 1009 1 2 0.00 0.00
5:38 pm 17:38 Mostly Cloudy with Snow 32 0 29 -1.7 88 88 W 28 44 29.84 1010 1 1 0.01 0.25
5:49 pm 17:49 Cloudy with Light Snow 32 0 29 -1.7 88 88 W 17 28 29.83 1010 2 3 0.01 0.25
5:51 pm 17:51 Cloudy with Light Snow 32 0 28 -2 87 87 W 17 28 29.82 1010 4 6 0.01 0.25
5:56 pm 17:56 Cloudy 33 0.6 29 -1.7 85 85 W 14 22 29.73 1007 9 14 0.01 0.25
6:56 pm 18:56 Sunny 35 1.7 25 -3.9 67 67 WSW 12 19 29.73 1007 10 16 0.00 0.00
7:56 pm 19:56 Cloudy 34 1.1 27 -2.8 76 76 SW 18 30 29.74 1007 10 16 0.00 0.00
8:13 pm 20:13 Cloudy with Light Snow 33 0.6 29 -1.7 85 85 WSW 15 24 29.84 1010 3 4 0.00 0.00
8:25 pm 20:25 Cloudy with Light Snow 32 0 29 -1.7 88 88 W 10 17 29.85 1011 2 2 0.00 0.00
8:34 pm 20:34 Cloudy with Light Snow 32 0 30 -1.1 92 92 W 12 19 29.86 1011 3 4 0.01 0.25
8:42 pm 20:42 Cloudy with Light Snow 32 0 30 -1.1 92 92 W 9 15 29.86 1011 4 6 0.01 0.25
8:56 pm 20:56 Mostly Cloudy with Light Snow 31 -0.6 29 -1.7 92 92 WNW 8 13 29.77 1008 5 8 0.01 0.25
9:11 pm 21:11 Cloudy 32 0 29 -1.7 88 88 W 12 19 29.87 1011 10 16 0.00 0.00
9:19 pm 21:19 Cloudy with Light Snow 32 0 29 -1.7 88 88 W 15 24 29.87 1011 3 4 0.00 0.00
9:26 pm 21:26 Cloudy with Light Snow 31 -0.6 28 -2.2 89 89 W 15 24 29.88 1012 2 2 0.00 0.00
9:33 pm 21:33 Cloudy with Light Snow 31 -0.6 28 -2.2 89 89 W 13 20 29.88 1012 1 2 0.00 0.00
9:39 pm 21:39 Cloudy with Light Snow 30 -1.1 28 -2.2 92 92 W 9 15 29.88 1012 2 3 0.01 0.25
9:49 pm 21:49 Mostly Cloudy with Light Snow 30 -1 28 -2 93 93 W 7 11 29.88 1012 5 8 0.00 0.00
9:56 pm 21:56 Partly Cloudy 30 -1.1 28 -2.2 92 92 W 6 9 29.77 1008 9 14 0.01 0.25
10:56 pm 22:56 Partly Cloudy 31 -0.6 24 -4.4 76 76 SW 9 15 29.76 1008 10 16 0.00 0.00
11:56 pm 23:56 Mostly Cloudy 32 0 25 -3.9 75 75 Calm 29.76 1008 10 16 0.00 0.00

Powered by AerisWeather